Weather in Mandalay

Myanmar     21°59′30″N   96°05′46″E
temp.,
°C
wind,
m/s
gust,
m/s
humid.,
%
clouds,
%
prec.,
mm/h
press.,
hPa
HPBL,
m
25 february, thu
thu2500:30+24sse23250 0.0 100850
03:30+22s23315 0.0 100760
06:30+20s363844 0.0 1010124
09:30+27s563127 0.0 1011663
12:30+32s322313 0.0 10101544
15:30+34wsw23180 0.0 10052065
18:30+28nnw11230 0.0 100524
21:30+26ese12270 0.0 100735
26 february, fri
fri2600:30+24sse12319 0.0 100733
03:30+22ese113525 0.0 100631
06:30+20sse364412 0.0 1009127
09:30+28s45300 0.0 1011517
12:30+34wnw12170 0.0 10092105
15:30+34wnw24140 0.0 10053123
18:30+29nne11190 0.0 100675
21:30+26e23220 0.0 100840
27 february, sat
sat2700:30+24ssw112613 0.0 100824
03:30+21ne11310 0.0 100739
06:30+20s22320 0.0 100835
09:30+29s45200 0.0 1010513
12:30+34ssw33150 0.0 10081960
15:30+36w33110 0.0 10053372
18:30+30n12150 0.0 100524
21:30+26e12190 0.0 100832
28 february, sun
sun2800:30+24sse22210 0.0 100828
03:30+21ne22270 0.0 100740
06:30+21se11270 0.0 100926
09:30+29sw11180 0.0 1012440
12:30+36w21130 0.0 10091371
15:30+37w33120 0.0 10062798
18:30+30nnw22160 0.0 100634
21:30+27ene22190 0.0 100934
1 march, mon
mon100:30+25sse23220 0.0 100932
03:30+23ese22250 0.0 100933
06:30+22sse23280 0.0 101148
09:30+30ssw34190 0.0 1013594
12:30+35sw33160 0.0 10111591
15:30+37wsw34140 0.0 10082832
18:30+31nnw12180 0.0 100826
21:30+28se22230 0.0 101032